[[{"header":{"parameterUnit":"m.s-1","parameterCategory":1,"la1":30.2991,"la2":30.254,"lo1":-89.0895,"lo2":-89.0444,"dx":0.0017,"dy":0.0017,"nx":28,"ny":28,"refTime":"2022-11-04T21:00:00:Z","depth":0,"parameterNumber":2,"parameterNumberName":"U-component_of_WINDS"},"data":[0,0,0,0,0,0,0,0,0,0,0,0,0,0,0,0,0,0,0,0,0,0,0,0,0,0,0,0,0,0,0,0,0,0,0,0,0,0,0,0,0,0,0,0,0,0,0,0,0,0,0,0,0,0,0,0,0,0,-2.6214,-2.6214,0,-2.6241,-2.6241,-2.6241,-2.6208,-2.6207,-2.6206,-2.6205,-2.6231,-2.6233,-2.6234,0,0,0,0,0,0,0,0,0,0,0,0,0,-2.6136,-2.6137,-2.6214,-2.6214,-2.6215,-2.6241,-2.6241,-2.6242,-2.6208,-2.6207,-2.6205,-2.6204,-2.623,-2.6232,-2.6235,0,0,0,0,0,0,0,0,0,0,0,0,0,-2.6167,-2.6138,-2.6214,-2.6201,-2.62,-2.6241,-2.6241,-2.6242,-2.6209,-2.6207,-2.6205,-2.6203,-2.623,-2.6232,-2.6235,-2.6289,0,0,-2.6243,-2.6245,0,0,0,0,0,0,0,0,-2.6165,-2.617,-2.6203,-2.6202,-2.6201,-2.6219,-2.6223,-2.6257,-2.6209,-2.6206,-2.6205,-2.6202,-2.6228,-2.6231,-2.624,-2.629,-2.6291,-2.6244,-2.6245,-2.6246,-2.6247,0,0,0,0,0,0,0,-2.6163,-2.6168,-2.6225,-2.6203,-2.6203,-2.6195,-2.6197,-2.6229,-2.6227,-2.6206,-2.6203,-2.6207,-2.6228,-2.6238,-2.6241,-2.6291,-2.6243,-2.6246,-2.6248,-2.6249,-2.6389,-2.6391,0,0,0,0,0,0,-2.6162,-2.6167,-2.6224,-2.6225,-2.6178,-2.6198,-2.62,-2.6215,-2.6226,-2.6226,-2.6209,-2.6205,-2.6234,-2.6237,-2.6241,-2.6306,-2.6246,-2.6249,-2.6251,-2.6387,-2.639,-2.6392,0,0,0,0,0,0,-2.6161,-2.6168,-2.6223,-2.6196,-2.6202,-2.6201,-2.6218,-2.6217,-2.6227,-2.6229,-2.6228,-2.6219,-2.6232,-2.6237,-2.6278,-2.6307,-2.625,-2.6253,-2.6385,-2.6388,-2.6391,-2.6436,0,0,0,0,0,0,-2.6159,-2.6167,-2.6187,-2.6196,-2.6204,-2.6258,-2.622,-2.6219,-2.6232,-2.6228,-2.6238,-2.6238,-2.6231,-2.6274,-2.6281,-2.6309,-2.6255,-2.6382,-2.6386,-2.639,-2.6432,-2.644,-2.6447,0,0,0,0,0,-2.6156,-2.6197,-2.6188,-2.6195,-2.6228,-2.626,-2.6264,-2.6256,-2.6234,-2.6254,-2.6256,-2.6238,-2.6303,-2.6278,-2.6285,-2.6316,-2.638,-2.6385,-2.639,-2.6428,-2.6438,-2.6447,0,0,0,0,0,0,-2.619,-2.6198,-2.6188,-2.6234,-2.6247,-2.6254,-2.6279,-2.6266,-2.6285,-2.628,-2.6269,-2.6272,-2.6315,-2.632,-2.6292,-2.637,-2.6338,-2.6344,-2.6365,-2.6375,-2.6382,-2.638,-2.6257,0,0,0,0,0,-2.6203,-2.6228,-2.6234,-2.6274,-2.6282,-2.628,-2.6293,-2.6286,-2.6299,-2.6303,-2.6308,-2.6321,-2.6345,-2.636,-2.6381,-2.6433,-2.6436,-2.6458,-2.6465,-2.6472,-2.6477,-2.6507,-2.6517,-2.6408,-2.6408,-2.6407,0,0,-2.623,-2.6238,-2.6254,-2.6282,-2.629,-2.6318,-2.6284,-2.6313,-2.6333,-2.6308,-2.6346,-2.6351,-2.6365,-2.6412,-2.6432,-2.6416,-2.6509,-2.6478,-2.6483,-2.6485,-2.6513,-2.6523,-2.6532,-2.6411,-2.641,-2.641,0,0,-2.6293,-2.6301,-2.6336,-2.6347,-2.6362,-2.6361,-2.637,-2.638,-2.6382,-2.6422,-2.6404,-2.6428,-2.6468,-2.6479,-2.649,-2.6562,-2.6547,-2.657,-2.661,-2.6639,-2.6648,-2.6655,-2.6682,-2.6691,-2.6575,-2.6576,-2.6576,0,-2.6323,-2.6363,-2.6355,-2.6387,-2.64,-2.6381,-2.6417,-2.6428,-2.6449,-2.6459,-2.6441,-2.6494,-2.6501,-2.6551,-2.657,-2.6579,-2.6589,-2.6568,-2.6647,-2.6655,-2.6662,-2.6687,-2.6697,-2.6578,-2.6578,-2.6578,-2.6577,0,-2.6402,-2.643,-2.6457,-2.6479,-2.6496,-2.6529,-2.6528,-2.6546,-2.6539,-2.654,-2.6582,-2.6591,-2.6615,-2.6627,-2.6619,-2.6677,-2.6667,-2.6649,-2.6616,-2.6675,-2.6698,-2.6708,-2.6582,-2.6581,-2.658,-2.658,0,0,-2.6483,-2.6504,-2.6514,-2.6525,-2.6542,-2.6564,-2.6598,-2.6623,-2.6639,-2.6656,-2.6684,-2.6721,-2.6705,-2.6718,-2.6712,-2.6738,-2.6796,-2.6716,-2.6716,-2.6731,-2.6862,-2.6876,-2.6887,-2.6787,-2.6788,-2.679,-2.6861,0,-2.6546,-2.6605,-2.6601,-2.6657,-2.6684,-2.6668,-2.6698,-2.6712,-2.6716,-2.674,-2.6743,-2.677,-2.6746,-2.6754,-2.6779,-2.6784,-2.6822,-2.6778,-2.6814,-2.6815,-2.681,-2.6899,-2.6912,-2.6979,-2.687,-2.6872,-2.6873,0,-2.6626,-2.6648,-2.6707,-2.6723,-2.6734,-2.6761,-2.6785,-2.6808,-2.6825,-2.6826,-2.6843,-2.6833,-2.6869,-2.6838,-2.6888,-2.6858,-2.6873,-2.6878,-2.688,-2.6882,-2.6846,-2.6903,-2.7,-2.701,-2.6887,-2.6886,-2.6885,0,-2.668,-2.6724,-2.6765,-2.6776,-2.6795,-2.6815,-2.6824,-2.6839,-2.6856,-2.6877,-2.6888,-2.6914,-2.6927,-2.6947,-2.6946,-2.6923,-2.6997,-2.6965,-2.6999,-2.7,-2.7014,-2.7013,-2.7114,-2.7025,-2.7025,-2.7024,-2.7024,0,-2.6751,-2.6787,-2.679,-2.6816,-2.6858,-2.6854,-2.6895,-2.6902,-2.6917,-2.6944,-2.6932,-2.6958,-2.6955,-2.6982,-2.6981,-2.7023,-2.7029,-2.7032,-2.7031,-2.7032,-2.7032,-2.7041,-2.7036,-2.7027,-2.7027,-2.7026,-2.7026,0,-2.6817,-2.682,-2.6865,-2.6881,-2.6886,-2.6916,-2.6931,-2.6955,-2.696,-2.6995,-2.7003,-2.7009,-2.704,-2.7041,-2.7076,-2.7076,-2.7128,-2.7122,-2.7122,-2.7121,-2.7155,-2.7152,-2.7264,-2.728,-2.7181,-2.7182,-2.7183,0,-2.6861,-2.6889,-2.691,-2.6928,-2.6939,-2.6967,-2.6985,-2.6984,-2.7003,-2.7027,-2.7049,-2.708,-2.7103,-2.7154,-2.7162,-2.7189,-2.7184,-2.7222,-2.7188,-2.7189,-2.7185,-2.7183,-2.7186,-2.7228,-2.7229,-2.723,-2.7231,0,-2.6939,-2.694,-2.6966,-2.6994,-2.7016,-2.7037,-2.7057,-2.7073,-2.7074,-2.7096,-2.7129,-2.7148,-2.7186,-2.7216,-2.7244,-2.7254,-2.7243,-2.7242,-2.7251,-2.7252,-2.7251,-2.7253,-2.714,-2.7239,-2.7238,-2.7237,-2.7237,-2.7236,-2.6995,-2.7021,-2.704,-2.707,-2.7086,-2.7106,-2.7131,-2.714,-2.7167,-2.7198,-2.7196,-2.7232,-2.7252,-2.7288,-2.7301,-2.733,-2.7317,-2.733,-2.7334,-2.7337,-2.7341,-2.7248,-2.7335,-2.7335,-2.7335,-2.7335,-2.7334,0,-2.7073,-2.7085,-2.7114,-2.7143,-2.7168,-2.7158,-2.718,-2.7201,-2.7234,-2.7253,-2.7279,-2.7317,-2.7348,-2.736,-2.739,-2.7411,-2.7407,-2.7419,-2.7417,-2.742,-2.735,-2.7339,-2.7422,-2.7422,-2.7422,-2.7422,-2.7422,-2.7422,-2.7116,-2.7159,-2.7163,-2.7215,-2.7228,-2.7264,-2.7278,-2.7297,-2.7313,-2.7358,-2.7384,-2.7392,-2.7409,-2.7441,-2.747,-2.7473,-2.7484,-2.7498,-2.7499,-2.7433,-2.7425,-2.7416,-2.7406,-2.7501,-2.7501,-2.7566,-2.7567,-2.7567]},{"header":{"parameterUnit":"m.s-1","parameterCategory":1,"la1":30.2991,"la2":30.254,"lo1":-89.0895,"lo2":-89.0444,"dx":0.0017,"dy":0.0017,"nx":28,"ny":28,"refTime":"2022-11-04T21:00:00:Z","depth":0,"parameterNumber":3,"parameterNumberName":"V-component_of_WINDS"},"data":[0,0,0,0,0,0,0,0,0,0,0,0,0,0,0,0,0,0,0,0,0,0,0,0,0,0,0,0,0,0,0,0,0,0,0,0,0,0,0,0,0,0,0,0,0,0,0,0,0,0,0,0,0,0,0,0,0,0,0.2161,0.2161,0,0.215,0.215,0.215,0.2189,0.219,0.2191,0.2193,0.2179,0.2178,0.2177,0,0,0,0,0,0,0,0,0,0,0,0,0,0.2217,0.2216,0.2161,0.2161,0.2161,0.215,0.215,0.215,0.2189,0.219,0.2192,0.2193,0.218,0.2178,0.2176,0,0,0,0,0,0,0,0,0,0,0,0,0,0.2198,0.2215,0.2161,0.2179,0.2181,0.215,0.215,0.215,0.2189,0.219,0.2192,0.2194,0.218,0.2178,0.2176,0.2127,0,0,0.217,0.2169,0,0,0,0,0,0,0,0,0.2199,0.2196,0.2177,0.2178,0.218,0.2173,0.2165,0.2142,0.2188,0.2186,0.2193,0.2195,0.2176,0.2174,0.2168,0.2127,0.2126,0.2169,0.2168,0.2167,0.2166,0,0,0,0,0,0,0,0.22,0.2197,0.2157,0.2176,0.2178,0.2188,0.2187,0.2161,0.2171,0.2186,0.2189,0.2187,0.2177,0.217,0.2168,0.2126,0.2169,0.2167,0.2166,0.2165,0.2048,0.2046,0,0,0,0,0,0,0.2199,0.2197,0.2157,0.2157,0.2194,0.2186,0.2185,0.2173,0.2171,0.2173,0.2186,0.2189,0.2173,0.217,0.2168,0.2112,0.2167,0.2165,0.2164,0.205,0.2048,0.2046,0,0,0,0,0,0,0.22,0.2195,0.2158,0.2178,0.2174,0.2183,0.2169,0.2172,0.2165,0.2171,0.2173,0.2177,0.2174,0.2171,0.2138,0.2112,0.2164,0.2162,0.2052,0.2049,0.2047,0.2,0,0,0,0,0,0,0.2202,0.2195,0.2176,0.2177,0.2173,0.2128,0.2168,0.2171,0.2162,0.2166,0.2163,0.2164,0.2175,0.2141,0.2136,0.211,0.216,0.2054,0.2051,0.2048,0.2004,0.1996,0.1989,0,0,0,0,0,0.2204,0.2162,0.2175,0.217,0.2149,0.2126,0.2123,0.2137,0.2159,0.2141,0.2145,0.2164,0.2116,0.2137,0.2132,0.2105,0.2056,0.2052,0.2048,0.2007,0.1998,0.199,0,0,0,0,0,0,0.2156,0.2163,0.2177,0.2135,0.213,0.2133,0.2109,0.2126,0.2114,0.2119,0.2136,0.2135,0.21,0.21,0.2123,0.206,0.209,0.2085,0.2061,0.2052,0.2045,0.2045,0.2159,0,0,0,0,0,0.2142,0.2123,0.2129,0.2091,0.2088,0.2099,0.209,0.2102,0.2097,0.2094,0.2096,0.2091,0.2075,0.2064,0.2049,0.2005,0.2006,0.1984,0.1977,0.1971,0.1966,0.1945,0.1936,0.2032,0.2032,0.2032,0,0,0.211,0.2111,0.2097,0.2082,0.2079,0.206,0.2097,0.2074,0.206,0.2091,0.2061,0.2062,0.2057,0.202,0.2003,0.2018,0.194,0.1966,0.1961,0.1959,0.194,0.1931,0.1923,0.203,0.203,0.2031,0,0,0.2042,0.204,0.201,0.2008,0.2005,0.2013,0.2006,0.2007,0.201,0.198,0.2004,0.1988,0.1959,0.1956,0.195,0.1886,0.1904,0.1881,0.1843,0.1822,0.1815,0.1808,0.1786,0.1778,0.1876,0.1876,0.1876,0,0.2002,0.1974,0.1992,0.1969,0.1962,0.1992,0.1962,0.1959,0.195,0.1945,0.1963,0.193,0.1929,0.1892,0.1877,0.1871,0.1864,0.188,0.1814,0.1808,0.1802,0.1782,0.1773,0.1873,0.1874,0.1874,0.1874,0,0.1926,0.1907,0.1883,0.1876,0.1867,0.184,0.1856,0.1844,0.1858,0.1865,0.1836,0.1836,0.1824,0.1816,0.1828,0.1782,0.1791,0.1811,0.1842,0.179,0.1771,0.1763,0.1869,0.187,0.1871,0.1872,0,0,0.1825,0.1832,0.1823,0.1822,0.1823,0.1808,0.1784,0.1773,0.1764,0.1758,0.1739,0.1717,0.1737,0.173,0.1743,0.1725,0.1677,0.1748,0.1748,0.1735,0.1628,0.1612,0.1603,0.1689,0.1688,0.1687,0.1628,0,0.1759,0.1719,0.1737,0.1694,0.1678,0.1708,0.1687,0.1686,0.1693,0.168,0.1688,0.1672,0.1698,0.1695,0.1679,0.1686,0.1655,0.169,0.1672,0.1671,0.1672,0.1593,0.1576,0.1521,0.1621,0.162,0.1619,0,0.1676,0.167,0.1626,0.1634,0.1627,0.1608,0.1602,0.1589,0.1589,0.1596,0.1591,0.1609,0.1587,0.1619,0.159,0.1613,0.1608,0.161,0.1608,0.1607,0.1641,0.1589,0.1503,0.1495,0.1607,0.1608,0.1609,0,0.1608,0.1588,0.1561,0.1559,0.1566,0.1553,0.1555,0.1557,0.1551,0.1545,0.1541,0.1533,0.1528,0.1521,0.1537,0.1558,0.1507,0.1539,0.1512,0.1511,0.1498,0.1499,0.141,0.1495,0.1495,0.1495,0.1495,0,0.1532,0.1505,0.1531,0.1513,0.1485,0.1507,0.1477,0.1483,0.1486,0.1471,0.1496,0.1482,0.1504,0.1492,0.1504,0.1479,0.1477,0.1482,0.1485,0.1479,0.1479,0.1475,0.1479,0.1493,0.1493,0.1494,0.1494,0,0.145,0.1466,0.1438,0.1449,0.1452,0.143,0.1439,0.1424,0.1435,0.1416,0.1413,0.1429,0.1416,0.1432,0.1421,0.1429,0.1396,0.1405,0.1396,0.1398,0.1371,0.1373,0.1276,0.1265,0.1357,0.1356,0.1355,0,0.14,0.138,0.139,0.1383,0.1385,0.1372,0.1367,0.1388,0.1382,0.1383,0.1368,0.1359,0.1352,0.1332,0.1342,0.1334,0.1344,0.1311,0.1343,0.1338,0.1344,0.1345,0.1344,0.1304,0.1302,0.1302,0.1301,0,0.1311,0.1321,0.1313,0.1308,0.1302,0.1298,0.1297,0.129,0.1313,0.1304,0.1293,0.1289,0.1279,0.127,0.1266,0.1268,0.1289,0.1291,0.1285,0.1278,0.1274,0.1277,0.1378,0.1293,0.1294,0.1294,0.1295,0.1295,0.1244,0.1229,0.1235,0.1225,0.1228,0.1227,0.1215,0.1225,0.1216,0.1211,0.1225,0.1211,0.1215,0.1212,0.1213,0.1203,0.1217,0.1208,0.1205,0.1202,0.1199,0.1276,0.1202,0.1203,0.1203,0.1203,0.1203,0,0.1157,0.1163,0.1155,0.1154,0.1147,0.1169,0.117,0.1163,0.1151,0.1153,0.1148,0.1136,0.1128,0.114,0.1134,0.1124,0.1134,0.1122,0.1123,0.1124,0.1185,0.1192,0.1115,0.1115,0.1115,0.1115,0.1115,0.1115,0.1111,0.1087,0.1099,0.1078,0.1084,0.1072,0.1071,0.1071,0.1074,0.106,0.1055,0.1063,0.107,0.1066,0.106,0.1064,0.1061,0.1046,0.1053,0.111,0.1119,0.1127,0.1133,0.1045,0.1045,0.0992,0.0992,0.0991]}]]